Powrót do katalogu

FENGYUN 1C DEB

LostPO
NORAD 46441·DEBRIS·🇨🇳 China

Wystrzelony May 10, 1999 z Taiyuan Satellite Launch Center

Loading…

Następne Przeloty (najbliższe 24 godziny)

TLE

NieaktualneSource: Space-Track

Epoka: Jun 13, 2026, 12:06 UTC

1 46441U 99025EYW 26164.50421421  .00009333  00000-0  54206-2 0  9999
2 46441  95.2572  90.6006 0305878 291.1372  65.7358 13.87895503311972

Śledź FENGYUN 1C DEB w czasie rzeczywistym z AllMySat

Download on the App Store